Погода в Аккудуке

Погода в Аккудуке : погода сейчас, прогноз погоды и архив. Всё, что Вы хотите узнать о погоде в Аккудуке!

Хотите узнать прогноз погоды в Аккудуке? Тогда Вам сюда: Погода в Аккудуке

Поиск расширенной информации на нашем сайте:

Другие новости

Новости СМИ2

Главная страница сайта

Новости сайта

03.07.2017

Напоминаем, что на нашем специализированном сайте Метеоцентр.Азия вы можете получить высокодетализированные автоматические прогнозы погоды по пунктам России, СНГ и мира в авиационном формате (включающие направление и скорость ветра, видимость, явления погоды, количество и форму облачности, нижнюю и верхнюю границу облачности).

Рекомендуем: Кондиционеры Panasonic inverter

Погода в Аккудуке - сегодня

Время (UTC), дата Ветер
(°,м/с) 
Видим.   Явления Облачность Т
(°С)
Тd
(°С)
f(%) Тe
(°С)
Pmin
(гПа)
dP
(гПа)
Po
(мм)
O2
(г/м3)
Тmin Tmax R s Состояние
почвы
03 15.06.18 тихо ()   20000 м    ясно 
+21.1 +0.2 25 +21  1014.3  0.5  754  282           
06 15.06.18 130 (ЮВ) 20000 м    ясно 
+30.4 -0.1 14 +30  1013.5  -0.7  753  273  +13.5         
09 15.06.18 110 (В) 20000 м    ясно 
+33.6 -3.6 9 +34  1012  -1.4  752  270           
12 15.06.18 120 (ЮВ) 20000 м    ясно 
+35.3 -3.9 8 +35  1010.1  -1.8  751  268           
15 15.06.18 180 (Ю) 20000 м    ясно 
+34.2 -4.7 8 +34  1009  -0.7  750  269    +35.9       
18 15.06.18 130 (ЮВ) 20000 м    ясно 
+24.8 -6.5 12 +25  1010.6  0.9  751  278    +35.9       
21 15.06.18 120 (ЮВ) 20000 м    ясно 
+22.6 -2.5 19 +23  1011.2  0.5  752  280           
00 16.06.18 140 (ЮВ) 20000 м    ясно 
+20.5 -0.2 25 +21  1010.8  -0.5  751  282           
03 16.06.18 тихо ()   20000 м    ясно 
+21.7 -1.9 20 +22  1011.3  0.7  752  281           
06 16.06.18 130 (ЮВ) 20000 м    ясно 
+32.6 -2.9 10 +33  1008.6  -2.5  750  270  +12.5         
09 16.06.18 180 (Ю) 20000 м    ясно 
+36 -5 7 +36  1007.8  -0.7  749  267           
12 16.06.18 130 (ЮВ) 20000 м    ясно 
+37.4 -4.7 7 +37  1006.5  -1.3  748  266           
15 16.06.18 140 (ЮВ) 20000 м    ясно 
+36.6 -6 6 +37  1004.2  -2.2  750  267    +37.8       
18 16.06.18 130 (ЮВ) 20000 м    1/0 средняя 
[Ac trans]
+27.1 -7.1 10 +27  1005.2  0.7  747  275    +37.8       
21 16.06.18 130 (ЮВ) 20000 м    ясно 
+24.1 -3.3 16 +24  1005.7  0.4  747  277           
00 17.06.18 160 (Ю) 20000 м    ясно 
+21.1 -1.4 22 +21  1005.3  -0.5  747  280           
06 17.06.18 120 (ЮВ) 20000 м    9/0 средняя 
[Ac cast]
+32.3 -6.1 8 +32  1003.1  -2.1  746  269  +15.2         
09 17.06.18 270 (З) 20000 м    8/0 средняя 
[Ac cast]
+38.5 -2.5 7 +39  1001.5  -1.5  745  263           
12 17.06.18 290 (З) 20000 м    8/0 средняя 
[Ac cast]
+39 -4.4 6 +39  1000.2  -1.3  744  263           
15 17.06.18 330 (СЗ) 20000 м    9/0 средняя 
[Ac cast]
+37.1 -2.6 8 +37  999.8  -0.4  743  264    +39.3       
18 17.06.18 010 (С) 20000 м    9/5 600 м кучево-дожд., средняя 
[Cb cap|As op]
+30.7 +1.1 15 +31  1002.3  2.3  745  270    +39.3       
21 17.06.18 020 (С) 20000 м    9/0 средняя 
[As op]
+28.1 +4.1 22 +28  1003.5  1.1  746  272           
00 18.06.18 040 (СВ) 20000 м    9/0 средняя 
[As op]
+25.5 +5 27 +26  1004.1  0.5  746  274           
06 18.06.18 360 (С) 20000 м    9/0 средняя 
[Ac cast]
+28.7 +12.8 38 +34  1004  -0.4  746  270  +22         
09 18.06.18 290 (З) 10 км  слаб. ливневой дождь  10/5 300 м кучево-дожд., средняя 
[Cb cap|As op]
+27.5 +7.9 29 +28  1004.7  0.6  747  272           
Время (UTC), дата Ветер
(°,м/с) 
Видим.   Явления Облачность Т
(°С)
Тd
(°С)
f(%) Тe
(°С)
Pmin
(гПа)
dP
(гПа)
Po
(мм)
O2
(г/м3)
Тmin Tmax R s Состояние
почвы

Для получения пояснительной информации подведите курсор к названию столбца.

ПОГОДА в Аккудуке - архив

Всё, что Вы хотите узнать о погоде в Аккудуке - удобно и подробно!

Выберите нужную дату (начиная с 1 января 2015* года) и нажмите кнопку "Найти".
Будут отображены архивные сводки погоды по пункту Аккудук, начиная с указанной даты.


Отображать данные в формате CSV (для использования в таблицах Excel)


Внимание! Наш архив погоды предназначен исключительно для личного некоммерческого использования в познавательных целях. Если Вам необходимы официальные справки о состоянии погоды (для производственных, юридических, коммерческих и т.п. целей), обращайтесь в органы Росгидромета.

*Примечание: данная дата относится к архиву по метеостанциям СССР (Россия, СНГ, Балтия).
Архив по метеостанциям Зарубежной Европы и Азии (кроме Китая) хранится 10 дней, по другим регионам земного шара (Китай, Африка, Америка, Австралия, Океания) - 1 день.

Аккудук - район местоположения метеостанции


Название, широта, долгота, высота метеостанции:
Аккудук 42.1°ш. 54.1°д. 78 м над ур. моря [Казахстан]

Дополнительная информация

В oтличие oт бoльшинства пoгoдных сайтoв мы публикуем пoдрoбную метеoинфoрмацию в детальнoм прoфессиoнальнoм фoрмате.

Характеристики температуры и влажнoсти вoздуха измеряются на высoте 2 м в тени вдали oт зданий и деревьев.
Скoрoсть ветра измеряется на высoте 10 м (на урoвне рoста челoвека скoрoсть ветра ниже в 1.5-2 раза). Если метеoстанция нахoдится в гoрoде или в лесу, тo скoрoсть ветра занижена на 2-4 м/с пo сравнению с oткрытым местoм. Скoрoсть ветра над акватoриями крупных рек и oзёр, а также на вершинах хoлмoв на 2-5 м/с выше, чем в oбычных услoвиях.
Атмoсфернoе давление в разных тoчках местнoсти мoжет значительнo oтличаться oт давления на метеoстанции, в зависимoсти oт услoвий рельефа (при пoдъёме на 10 м давление пoнижается примернo на 1 мм рт.ст.).